Wind_Speed
4 4 5 6 9 8 7 8 8 9 9 9 10 11 12 12 12 11 11 10 9 9 8 7 6 6 5 3 3 3 3 3 4 4 5 5 4 5 4 4 4 4 4 4 4 4 4 5 5
3 4 4 5 7 5 6 7 8 8 8 9 10 11 12 12 11 11 11 10 10 9 8 7 6 5 4 3 3 3 3 3 3 4 4 4 4 4 4 4 3 3 3 4 4 5 5 5 5
2 2 3 5 4 3 4 6 7 8 8 9 10 11 11 11 11 11 11 10 10 9 8 7 6 5 4 3 3 3 3 3 3 3 4 4 3 3 4 4 3 3 3 4 4 5 5 5 5
1 1 2 3 3 4 4 5 6 7 8 9 10 10 10 10 11 11 11 10 10 9 8 7 6 5 5 4 3 3 3 3 2 3 3 3 3 2 2 2 3 3 4 4 4 4 4 5 5
2 2 2 2 3 4 4 4 5 7 8 9 10 10 9 9 10 10 10 10 10 9 8 7 5 5 4 4 3 3 3 3 2 2 2 2 2 2 2 1 2 3 4 4 4 4 4 5 5
3 2 2 3 4 3 3 4 5 6 7 8 9 9 9 9 9 10 10 10 9 9 8 6 5 5 5 4 3 3 3 3 3 2 2 2 2 2 2 2 2 3 3 4 3 3 4 5 5
5 4 4 4 5 4 4 4 4 6 6 8 8 8 8 9 9 9 9 9 9 9 8 6 5 4 4 4 3 3 3 3 2 2 2 2 2 2 3 2 2 3 2 3 3 4 3 5 6
6 6 6 6 6 5 4 4 4 5 6 7 8 8 8 8 8 8 8 9 8 8 7 6 5 4 4 3 2 2 2 2 2 2 2 1 2 2 3 3 2 2 2 2 3 4 5 5 6
8 7 9 8 7 7 5 5 5 5 5 6 7 8 8 8 8 8 8 9 8 7 7 6 5 4 4 3 2 2 2 2 2 2 2 1 1 1 2 2 2 3 3 3 3 4 4 5 6
10 9 11 10 9 8 6 6 6 6 6 7 7 7 8 8 8 8 8 8 8 7 6 6 4 3 3 3 2 2 2 2 2 2 2 1 1 0 0 1 2 2 3 3 3 4 4 5 6
12 12 12 11 10 8 7 7 7 7 7 7 7 7 8 8 7 8 8 8 8 7 6 5 4 4 3 3 2 2 2 2 1 1 1 2 1 1 0 1 1 2 3 3 3 3 4 4 5
14 14 13 13 11 10 9 8 8 8 8 8 7 8 8 8 7 7 7 7 7 7 6 4 4 3 3 2 3 3 2 2 1 1 1 1 1 1 1 1 2 2 3 4 4 4 4 4 5
16 16 15 15 14 13 11 10 10 9 9 9 9 8 8 8 7 7 7 7 7 6 5 4 4 3 3 2 2 3 3 2 2 2 2 2 2 2 1 1 2 3 4 4 4 5 5 5 6
16 16 17 16 16 15 13 12 12 11 11 10 9 9 9 9 8 8 8 8 7 6 5 4 4 3 3 2 2 2 2 3 3 3 3 3 3 3 3 2 3 3 4 4 4 5 4 5 5
16 17 17 17 17 16 14 13 13 12 12 11 10 10 10 9 9 9 8 8 7 7 6 5 4 3 3 3 2 3 4 3 3 3 4 4 5 4 5 5 4 4 4 5 5 5 5 5 5
17 17 17 18 18 17 15 14 15 13 12 12 11 11 11 11 10 10 9 8 8 7 6 5 4 4 4 4 4 3 4 4 4 5 4 5 5 6 6 5 5 5 5 5 5 5 6 6 6
17 17 17 19 19 18 17 16 16 15 14 13 13 12 12 11 11 11 10 9 9 8 7 6 6 5 5 5 5 5 4 5 6 6 5 6 6 7 7 6 5 5 5 5 5 6 6 7 7
18 18 18 19 19 19 18 17 17 15 15 15 14 13 13 13 12 12 12 11 10 10 10 9 8 7 7 7 6 6 6 7 7 7 7 6 6 7 7 6 6 6 5 5 6 6 7 7 7
19 18 19 19 20 20 19 18 17 16 15 15 15 15 15 14 14 13 13 12 11 11 11 11 10 9 8 8 8 8 9 8 8 8 7 7 6 6 6 6 6 6 6 6 6 6 6 7 7
19 19 19 20 21 21 20 19 18 17 16 16 16 16 16 16 16 15 14 13 13 13 13 12 10 10 10 10 10 10 10 10 10 10 9 8 7 7 6 6 6 7 6 6 7 7 7 8 8
18 19 19 20 21 21 21 20 20 19 18 17 17 17 17 17 16 16 15 14 14 14 15 14 12 12 12 13 12 12 12 12 11 12 12 11 9 8 8 8 8 7 7 7 8 9 9 9 9
18 18 19 20 20 20 20 18 20 19 19 18 17 17 18 17 17 16 16 15 15 15 15 15 15 14 13 13 13 13 13 13 13 13 13 13 11 10 9 9 9 9 9 8 9 9 9 10 10
19 19 19 20 20 19 20 18 19 20 19 19 18 18 18 17 17 17 17 17 17 17 16 16 16 15 14 14 13 14 14 15 15 14 14 14 13 12 11 11 11 11 10 10 10 10 11 11 11
19 19 19 19 18 19 20 19 19 20 19 19 19 19 18 18 18 18 19 19 19 18 18 18 17 16 15 15 15 16 16 16 16 16 15 14 14 14 13 12 12 12 12 12 12 12 12 12 12
19 17 17 16 17 18 20 20 21 21 20 19 19 19 19 20 20 20 19 20 19 19 19 19 18 17 17 17 17 17 17 17 17 16 17 17 16 15 15 14 14 15 13 13 14 13 14 14 14
19 18 17 17 17 17 20 20 20 21 20 20 20 20 21 21 21 21 21 21 20 20 20 20 20 19 19 19 18 18 19 18 18 17 17 18 18 17 16 16 15 15 15 15 15 15 15 15 15
20 19 18 18 18 18 19 21 21 21 21 21 21 21 22 22 21 21 22 22 22 22 22 21 22 21 21 21 20 20 20 20 19 18 18 19 19 18 18 18 17 16 16 16 17 17 16 15 15
21 20 20 18 19 19 19 20 21 22 22 22 22 22 22 22 23 23 24 24 24 25 25 24 23 23 23 23 22 22 21 21 21 21 21 21 21 20 20 19 18 18 17 18 17 17 17 17 17
21 21 21 21 20 19 18 20 21 22 22 21 21 22 23 23 24 24 24 25 26 25 26 25 25 25 25 24 23 24 23 23 24 23 23 23 23 22 22 21 20 20 19 19 19 19 19 19 18
22 23 23 22 22 22 20 21 22 22 22 22 22 22 23 23 24 24 25 25 26 27 26 27 27 27 27 26 25 24 25 25 25 25 25 25 25 24 24 23 22 21 21 21 20 20 20 20 20
Wind_Direction
45 49 47 44 43 37 29 32 35 34 37 38 39 40 40 39 38 34 30 28 29 31 33 32 35 39 43 50 61 75 88 107 121 129 135 142 156 172 173 184 184 191 189 185 198 200 186 185 187
28 41 38 39 49 23 8 17 27 33 37 36 34 35 34 35 33 31 28 27 25 29 32 31 31 35 40 49 54 71 85 100 121 127 133 147 156 167 180 182 186 183 183 181 191 187 186 182 182
9 30 30 38 38 16 358 14 25 30 32 30 29 29 30 31 29 27 25 26 26 28 29 29 31 32 34 45 56 72 85 94 111 130 138 146 160 172 180 189 188 176 166 162 171 175 182 185 189
292 343 15 26 3 358 359 12 21 25 26 24 21 24 27 28 25 25 24 24 23 25 29 28 34 32 30 39 57 68 85 92 96 116 134 142 155 164 183 194 208 179 165 170 179 177 181 188 197
261 279 336 328 330 346 354 5 15 18 21 20 20 21 22 23 20 20 21 20 21 23 27 28 32 31 30 36 55 68 82 89 96 104 116 130 142 156 186 213 209 170 165 175 183 185 187 197 203
249 251 254 276 299 326 345 359 6 14 16 15 14 14 16 16 15 15 16 16 18 19 20 27 27 27 29 33 46 65 79 90 96 102 109 132 150 169 190 198 186 181 174 177 189 200 202 215 217
242 238 238 254 271 294 323 342 352 2 4 7 7 7 10 9 11 13 14 16 17 17 16 19 24 26 30 36 49 60 77 89 98 104 113 146 175 191 188 162 172 168 181 186 198 212 219 229 227
244 237 243 248 257 271 302 317 330 346 352 357 358 359 1 3 8 14 13 14 16 14 15 14 17 25 28 32 40 54 69 83 89 109 104 112 176 192 197 204 193 206 207 213 217 219 223 233 235
244 236 239 241 245 260 282 295 310 328 334 342 348 350 353 358 4 10 11 11 9 7 7 6 12 23 23 25 27 42 55 72 75 77 79 81 119 185 213 217 228 230 231 233 231 230 231 235 241
241 238 238 243 245 253 269 275 291 310 320 331 340 344 350 353 359 2 1 5 2 360 359 359 360 11 19 24 32 43 49 49 46 49 42 50 104 149 210 215 231 236 238 244 246 238 237 239 243
241 240 244 248 248 250 259 268 278 291 300 311 324 332 338 344 349 352 350 354 356 355 353 351 356 6 16 27 32 37 50 46 36 33 27 26 48 58 10 268 256 250 243 249 251 246 245 243 244
241 244 246 248 249 249 252 262 270 278 286 295 303 314 321 331 336 339 342 346 347 347 348 347 343 348 2 27 20 15 20 22 17 354 358 12 15 19 28 287 270 259 245 242 242 242 242 248 253
241 243 245 248 249 250 252 258 265 272 278 285 292 303 312 319 323 329 330 333 336 337 339 340 339 332 332 345 7 8 6 357 351 330 309 314 317 313 311 304 281 271 263 254 244 248 247 253 261
241 243 246 248 251 254 254 259 263 268 272 280 288 298 306 309 314 321 322 321 320 320 322 320 321 324 327 325 317 326 339 347 330 317 303 299 298 304 307 309 299 290 283 277 269 253 251 259 262
240 242 246 247 251 254 256 259 263 265 269 275 283 290 298 297 300 305 309 310 308 308 308 310 309 307 308 311 318 324 330 332 326 312 298 291 291 294 298 297 291 285 282 277 271 266 258 258 257
240 240 244 249 251 252 252 254 259 263 266 271 278 283 289 290 293 294 294 298 299 298 295 296 294 290 293 294 299 307 308 308 308 309 302 292 287 294 302 295 293 280 277 274 271 269 259 255 255
240 239 241 248 251 252 252 252 259 263 264 268 273 278 282 285 287 289 288 288 290 290 288 286 284 279 284 287 286 287 289 298 295 292 298 300 301 300 300 297 295 285 270 267 270 270 272 261 256
240 239 241 246 251 251 253 255 260 264 262 264 269 273 275 278 282 283 283 282 282 285 285 286 281 276 278 282 284 285 286 293 292 287 287 298 307 307 295 286 284 282 275 268 267 271 272 268 267
238 238 241 245 250 251 253 256 259 262 263 264 266 269 269 271 275 277 280 279 276 278 280 280 278 274 276 275 276 280 282 286 291 286 288 292 293 300 299 285 281 279 272 266 264 264 271 272 270
240 240 243 248 249 250 252 255 258 261 263 264 265 266 267 268 271 274 277 275 274 273 276 275 272 270 272 271 270 276 279 279 284 284 282 283 286 293 293 292 289 283 273 271 267 266 271 273 270
242 241 243 248 250 252 254 257 260 261 262 262 262 263 266 267 269 270 272 273 274 274 272 270 269 271 270 270 274 275 275 274 277 279 278 277 277 282 287 286 284 281 279 281 277 270 269 274 273
242 244 245 248 251 253 255 257 261 261 259 260 262 264 266 265 265 265 267 271 271 272 270 265 264 270 270 269 272 273 274 275 274 274 273 275 273 272 276 278 277 277 277 279 280 277 272 274 275
243 246 248 250 252 254 257 254 261 262 259 261 264 265 262 262 261 262 264 268 269 267 267 270 265 269 270 272 273 273 273 274 274 274 276 273 273 271 273 275 276 275 273 273 275 277 275 276 276
247 250 252 254 254 254 254 254 257 261 261 260 262 260 260 260 261 263 265 266 266 264 265 269 266 266 269 271 273 274 272 273 274 275 275 275 273 273 270 274 277 275 272 270 270 273 276 276 275
248 251 252 251 250 253 256 256 256 261 260 259 260 257 259 261 262 263 265 266 266 265 264 266 265 266 268 271 271 274 275 272 272 275 276 277 276 270 267 270 272 271 269 269 271 274 275 275 274
249 247 245 247 250 256 261 258 260 264 262 259 260 260 259 260 260 260 262 263 264 264 263 264 267 267 268 270 271 272 274 272 271 275 277 277 278 272 270 271 271 272 272 272 273 274 275 274 271
249 247 246 251 254 259 264 265 264 265 264 261 262 262 262 261 260 260 261 260 261 263 265 265 264 266 269 270 274 274 273 270 269 273 275 276 277 274 273 273 271 272 273 273 274 271 273 275 272
249 249 248 249 254 259 266 270 268 266 266 267 266 265 264 264 262 260 260 259 259 261 264 266 266 267 267 270 271 271 271 268 268 269 272 274 275 274 272 271 272 273 273 274 275 273 271 272 273
251 249 250 252 253 258 264 267 268 267 267 267 268 267 266 266 264 261 260 259 258 260 262 266 265 264 264 267 269 270 270 269 269 268 270 271 272 271 270 269 268 270 273 274 272 271 270 271 272
253 251 252 255 259 259 261 266 269 267 267 267 267 267 268 268 266 262 260 259 259 260 262 262 265 265 265 266 269 269 271 271 270 270 270 270 269 268 268 269 268 267 270 272 272 271 270 270 270
Height
5913 5913 5913 5913 5914 5915 5913 5911 5910 5908 5907 5905 5904 5902 5901 5900 5899 5899 5895 5892 5891 5889 5887 5886 5885 5884 5883 5882 5881 5880 5879 5879 5878 5878 5878 5878 5878 5878 5878 5878 5878 5878 5878 5878 5878 5878 5879 5880 5880
5913 5913 5914 5914 5916 5916 5914 5912 5910 5908 5907 5905 5904 5902 5901 5899 5898 5896 5894 5892 5891 5889 5888 5887 5886 5885 5883 5883 5882 5881 5880 5879 5878 5878 5878 5878 5878 5878 5878 5878 5877 5877 5877 5878 5878 5878 5878 5879 5880
5913 5913 5914 5915 5916 5915 5914 5912 5910 5908 5907 5905 5904 5902 5901 5899 5898 5896 5895 5893 5891 5889 5888 5887 5886 5885 5884 5883 5882 5881 5880 5879 5879 5878 5878 5878 5878 5878 5877 5877 5877 5877 5877 5878 5878 5878 5878 5879 5880
5913 5914 5915 5916 5915 5914 5913 5911 5910 5909 5907 5905 5904 5903 5901 5900 5898 5897 5895 5893 5892 5890 5888 5887 5887 5886 5884 5883 5882 5881 5881 5880 5879 5879 5878 5878 5878 5878 5878 5877 5877 5877 5877 5877 5878 5878 5879 5879 5880
5912 5914 5915 5916 5915 5914 5912 5911 5910 5909 5907 5906 5904 5903 5901 5900 5898 5897 5895 5893 5892 5890 5889 5888 5887 5886 5885 5884 5883 5882 5881 5880 5880 5879 5879 5878 5878 5878 5877 5877 5877 5877 5877 5877 5878 5878 5878 5879 5879
5912 5913 5915 5915 5914 5913 5912 5911 5910 5909 5907 5906 5905 5903 5901 5900 5898 5897 5895 5894 5892 5891 5889 5888 5887 5886 5885 5884 5883 5882 5881 5881 5880 5880 5879 5878 5878 5878 5877 5877 5876 5877 5877 5877 5878 5878 5878 5879 5879
5912 5913 5913 5914 5913 5913 5912 5911 5909 5909 5907 5906 5905 5903 5902 5900 5898 5897 5895 5894 5892 5891 5889 5888 5887 5886 5885 5884 5883 5882 5882 5881 5880 5880 5879 5879 5878 5878 5877 5877 5877 5876 5877 5877 5877 5878 5878 5878 5878
5910 5912 5912 5912 5912 5912 5911 5910 5909 5908 5907 5906 5905 5903 5902 5900 5898 5897 5895 5894 5892 5891 5890 5889 5887 5886 5885 5884 5883 5883 5882 5881 5881 5880 5879 5879 5878 5877 5877 5877 5877 5877 5877 5877 5877 5877 5877 5877 5877
5908 5911 5910 5910 5910 5910 5910 5909 5909 5908 5907 5905 5904 5903 5902 5900 5898 5897 5895 5894 5892 5891 5890 5889 5888 5887 5885 5884 5883 5883 5882 5881 5881 5880 5879 5879 5878 5878 5877 5877 5877 5877 5876 5876 5876 5876 5876 5876 5877
5906 5908 5908 5908 5908 5908 5908 5908 5908 5907 5906 5905 5904 5902 5901 5899 5898 5896 5895 5894 5892 5891 5890 5889 5888 5887 5886 5884 5883 5883 5882 5881 5881 5880 5880 5879 5878 5878 5877 5877 5876 5876 5876 5875 5875 5875 5876 5875 5876
5903 5905 5905 5905 5906 5906 5907 5906 5906 5906 5905 5904 5903 5902 5900 5899 5898 5896 5895 5894 5892 5891 5890 5889 5888 5887 5886 5885 5884 5883 5882 5882 5881 5880 5880 5879 5878 5877 5877 5876 5876 5875 5875 5875 5875 5875 5875 5875 5875
5901 5901 5902 5902 5903 5904 5905 5905 5904 5904 5904 5903 5902 5901 5900 5898 5897 5896 5894 5893 5892 5891 5889 5888 5888 5887 5886 5885 5884 5883 5883 5882 5881 5881 5880 5879 5878 5878 5877 5876 5875 5875 5874 5874 5874 5874 5874 5874 5874
5897 5898 5899 5900 5901 5901 5902 5903 5903 5902 5902 5901 5900 5899 5899 5897 5896 5895 5894 5893 5891 5890 5889 5888 5887 5886 5885 5884 5884 5883 5883 5882 5881 5881 5880 5879 5878 5877 5876 5876 5875 5874 5873 5873 5873 5873 5873 5873 5873
5894 5895 5896 5897 5898 5899 5900 5900 5901 5900 5900 5900 5899 5898 5897 5896 5895 5894 5893 5892 5890 5889 5888 5887 5886 5886 5885 5884 5883 5883 5882 5881 5881 5880 5879 5879 5878 5877 5876 5876 5875 5874 5873 5872 5872 5872 5872 5872 5871
5890 5892 5893 5894 5895 5896 5898 5898 5898 5898 5898 5898 5897 5896 5896 5895 5894 5892 5891 5890 5889 5888 5887 5886 5886 5885 5884 5883 5883 5882 5881 5881 5880 5880 5879 5878 5877 5877 5876 5875 5874 5873 5873 5872 5871 5871 5871 5871 5870
5887 5889 5890 5891 5892 5893 5896 5897 5895 5895 5896 5895 5895 5894 5894 5893 5892 5891 5890 5889 5888 5887 5886 5885 5885 5884 5883 5882 5882 5881 5880 5880 5879 5879 5878 5877 5877 5876 5875 5874 5873 5873 5872 5871 5871 5870 5870 5869 5869
5883 5886 5887 5888 5888 5889 5891 5893 5892 5892 5893 5893 5893 5892 5892 5891 5890 5889 5888 5887 5886 5886 5885 5884 5883 5883 5882 5881 5881 5880 5879 5879 5878 5877 5876 5876 5875 5874 5873 5873 5872 5871 5871 5870 5870 5869 5869 5868 5868
5880 5882 5883 5884 5884 5885 5887 5888 5889 5889 5889 5890 5890 5890 5889 5889 5888 5887 5886 5885 5885 5884 5883 5883 5882 5881 5880 5880 5879 5879 5878 5877 5876 5876 5875 5874 5874 5873 5871 5871 5870 5870 5869 5869 5868 5868 5867 5867 5867
5875 5877 5879 5880 5880 5882 5883 5884 5885 5885 5886 5886 5887 5887 5886 5886 5885 5884 5884 5883 5882 5882 5881 5881 5880 5879 5878 5878 5877 5877 5876 5876 5875 5874 5874 5873 5872 5871 5870 5869 5869 5868 5868 5867 5867 5866 5866 5865 5865
5870 5873 5874 5875 5876 5877 5879 5880 5881 5881 5882 5883 5883 5883 5883 5883 5882 5882 5881 5880 5880 5879 5879 5878 5877 5877 5876 5876 5875 5875 5875 5874 5873 5872 5872 5871 5870 5869 5869 5868 5867 5867 5866 5866 5865 5864 5864 5864 5863
5866 5869 5870 5871 5871 5873 5875 5876 5877 5877 5878 5879 5879 5879 5879 5879 5879 5878 5878 5878 5877 5876 5875 5875 5875 5874 5874 5873 5872 5872 5872 5871 5871 5870 5869 5869 5868 5868 5867 5866 5865 5865 5864 5864 5863 5863 5862 5862 5861
5862 5864 5865 5866 5868 5869 5871 5873 5873 5873 5873 5874 5875 5875 5875 5875 5875 5875 5874 5874 5874 5873 5872 5872 5871 5871 5871 5871 5870 5870 5869 5869 5868 5867 5867 5866 5866 5865 5864 5864 5863 5863 5862 5861 5861 5860 5860 5859 5859
5858 5859 5861 5862 5863 5865 5866 5868 5869 5868 5868 5870 5870 5870 5870 5870 5870 5870 5870 5870 5870 5869 5869 5869 5868 5868 5868 5868 5867 5867 5866 5866 5865 5864 5864 5864 5864 5863 5862 5861 5861 5860 5859 5859 5858 5858 5857 5857 5856
5853 5855 5856 5857 5859 5861 5862 5864 5865 5863 5864 5865 5865 5865 5865 5865 5866 5866 5866 5866 5866 5865 5865 5865 5865 5865 5865 5865 5864 5864 5863 5862 5861 5861 5861 5860 5860 5860 5859 5858 5858 5857 5857 5856 5855 5855 5854 5854 5853
5849 5852 5854 5855 5856 5857 5857 5857 5859 5858 5859 5860 5860 5860 5860 5861 5861 5861 5861 5861 5861 5860 5861 5861 5861 5861 5861 5861 5861 5860 5859 5859 5858 5858 5857 5857 5856 5856 5855 5855 5854 5854 5854 5853 5852 5852 5851 5851 5850
5844 5847 5851 5852 5854 5854 5851 5852 5853 5852 5853 5854 5855 5855 5855 5855 5856 5856 5856 5856 5856 5856 5856 5856 5857 5857 5857 5856 5856 5856 5855 5855 5854 5853 5853 5853 5852 5852 5851 5851 5850 5850 5850 5850 5849 5848 5848 5847 5847
5839 5841 5844 5846 5847 5848 5847 5846 5847 5847 5847 5848 5848 5849 5849 5850 5850 5850 5850 5850 5850 5850 5850 5851 5851 5852 5852 5851 5851 5851 5850 5850 5850 5849 5849 5848 5848 5847 5847 5846 5846 5846 5846 5845 5845 5844 5844 5843 5842
5834 5836 5838 5840 5841 5842 5843 5842 5842 5841 5841 5842 5842 5842 5843 5843 5843 5844 5844 5844 5844 5844 5844 5845 5845 5846 5846 5846 5846 5845 5845 5845 5845 5844 5844 5844 5843 5843 5842 5842 5842 5841 5841 5841 5841 5840 5840 5839 5839
5828 5830 5831 5833 5835 5837 5838 5839 5835 5835 5835 5836 5836 5836 5836 5837 5837 5837 5837 5837 5837 5838 5838 5839 5839 5839 5839 5839 5839 5839 5839 5839 5839 5838 5838 5838 5837 5837 5837 5837 5837 5837 5836 5836 5836 5835 5835 5834 5834
5822 5823 5825 5828 5828 5828 5831 5833 5829 5829 5829 5829 5829 5829 5829 5830 5830 5830 5830 5830 5830 5831 5832 5832 5832 5832 5832 5832 5832 5832 5832 5831 5832 5832 5832 5831 5831 5831 5831 5831 5831 5831 5831 5830 5830 5829 5829 5829 5829